TimeCDT,TemperatureF,Dew PointF,Humidity,Sea Level PressureIn,VisibilityMPH,Wind Direction,Wind SpeedMPH,Gust SpeedMPH,PrecipitationIn,Events,Conditions,WindDirDegrees,DateUTC
12:53 AM,51.8,24.8,35,29.94,10.0,SSE,15.0,-,N/A,,Clear,160,2013-03-21 05:53:00
1:53 AM,50.0,28.0,43,29.89,10.0,SSE,16.1,-,N/A,,Clear,160,2013-03-21 06:53:00
2:53 AM,51.1,27.0,39,29.86,10.0,South,16.1,-,N/A,,Clear,170,2013-03-21 07:53:00
3:53 AM,50.0,27.0,41,29.83,10.0,South,19.6,-,N/A,,Clear,180,2013-03-21 08:53:00
4:53 AM,48.9,28.0,44,29.78,10.0,South,17.3,-,N/A,,Clear,180,2013-03-21 09:53:00
5:53 AM,48.9,28.0,44,29.76,10.0,South,20.7,26.5,N/A,,Clear,180,2013-03-21 10:53:00
6:53 AM,48.9,28.9,46,29.75,10.0,South,21.9,27.6,N/A,,Mostly Cloudy,180,2013-03-21 11:53:00
7:53 AM,48.9,30.0,48,29.73,10.0,South,23.0,27.6,N/A,,Mostly Cloudy,190,2013-03-21 12:53:00
8:53 AM,51.1,30.9,46,29.71,10.0,South,24.2,31.1,N/A,,Scattered Clouds,180,2013-03-21 13:53:00
9:53 AM,54.0,32.0,43,29.70,10.0,South,28.8,41.4,N/A,,Mostly Cloudy,180,2013-03-21 14:53:00
10:53 AM,55.0,33.1,43,29.66,10.0,South,29.9,36.8,N/A,,Mostly Cloudy,180,2013-03-21 15:53:00
11:53 AM,57.9,36.0,44,29.62,10.0,South,25.3,36.8,N/A,,Scattered Clouds,180,2013-03-21 16:53:00
12:53 PM,61.0,41.0,48,29.61,10.0,South,25.3,33.4,N/A,,Clear,190,2013-03-21 17:53:00
1:53 PM,64.9,42.1,43,29.55,10.0,South,21.9,32.2,N/A,,Clear,190,2013-03-21 18:53:00
2:53 PM,70.0,46.9,44,29.50,10.0,South,16.1,25.3,N/A,,Clear,190,2013-03-21 19:53:00
3:53 PM,73.0,48.9,42,29.46,10.0,South,15.0,-,N/A,,Clear,190,2013-03-21 20:53:00
4:53 PM,75.0,48.9,40,29.43,10.0,SSW,13.8,20.7,N/A,,Clear,200,2013-03-21 21:53:00
5:53 PM,75.9,48.9,38,29.42,10.0,South,9.2,-,N/A,,Clear,190,2013-03-21 22:53:00
6:53 PM,73.0,48.9,42,29.43,10.0,SE,9.2,-,N/A,,Clear,140,2013-03-21 23:53:00
7:53 PM,60.1,44.1,55,29.47,10.0,East,21.9,29.9,N/A,,Clear,80,2013-03-22 00:53:00
8:53 PM,54.0,41.0,62,29.52,10.0,ENE,23.0,31.1,N/A,,Clear,70,2013-03-22 01:53:00
9:53 PM,51.1,39.9,66,29.55,10.0,East,21.9,32.2,N/A,,Clear,90,2013-03-22 02:53:00
10:53 PM,46.9,39.0,74,29.57,10.0,East,21.9,-,N/A,,Clear,80,2013-03-22 03:53:00
11:53 PM,45.0,37.9,76,29.60,10.0,East,20.7,-,N/A,,Clear,80,2013-03-22 04:53:00